WJA157 CYEG-CYYC

Flight info

Callsign WJA157
Flight time 0h 30m
Altitude 24000
Route OLIMI Q814 ADVOX ADVOX9
Aircraft B737/M-SDE2E3FGHIRWXY/LB1

Departure

Time 2026-04-28 01:10
Airport Edmonton International Airport (CYEG)

Arrival

Time 2026-04-28 01:40
Airport Calgary International Airport (CYYC)
Time Latitude Longitude Altitude Speed Heading
2026-04-28 00:43 53.30590 -113.58424 2383 ft 0 kts 24°
2026-04-28 00:58 53.30585 -113.58428 2385 ft 2 kts 24°
2026-04-28 00:58 53.30567 -113.58442 2383 ft 3 kts 24°
2026-04-28 00:58 53.30549 -113.58457 2387 ft 3 kts 24°
2026-04-28 00:58 53.30530 -113.58471 2383 ft 3 kts 24°
2026-04-28 00:59 53.30512 -113.58485 2383 ft 3 kts 28°
2026-04-28 00:59 53.30495 -113.58502 2386 ft 3 kts 37°
2026-04-28 00:59 53.30482 -113.58519 2386 ft 1 kts 40°
2026-04-28 00:59 53.30481 -113.58520 2385 ft 0 kts 40°
2026-04-28 01:01 53.30490 -113.58518 2383 ft 4 kts
2026-04-28 01:01 53.30534 -113.58568 2383 ft 11 kts 318°
2026-04-28 01:01 53.30591 -113.58671 2383 ft 13 kts 298°
2026-04-28 01:02 53.30569 -113.58798 2386 ft 12 kts 218°
2026-04-28 01:02 53.30525 -113.58890 2383 ft 10 kts 263°
2026-04-28 01:02 53.30565 -113.58992 2387 ft 12 kts 315°
2026-04-28 01:02 53.30633 -113.59102 2385 ft 15 kts 316°
2026-04-28 01:03 53.30714 -113.59239 2383 ft 18 kts 314°
2026-04-28 01:03 53.30820 -113.59286 2388 ft 18 kts 28°
2026-04-28 01:03 53.30920 -113.59171 2383 ft 17 kts 34°
2026-04-28 01:03 53.31016 -113.59061 2383 ft 16 kts 34°
2026-04-28 01:04 53.31110 -113.58951 2388 ft 17 kts 34°
2026-04-28 01:04 53.31208 -113.58837 2383 ft 17 kts 36°
2026-04-28 01:04 53.31301 -113.58726 2386 ft 16 kts 34°
2026-04-28 01:04 53.31396 -113.58616 2383 ft 17 kts 34°
2026-04-28 01:05 53.31513 -113.58479 2388 ft 25 kts 34°
2026-04-28 01:05 53.31651 -113.58317 2383 ft 24 kts 34°
2026-04-28 01:05 53.31784 -113.58162 2387 ft 23 kts 35°
2026-04-28 01:05 53.31910 -113.58015 2383 ft 22 kts 35°
2026-04-28 01:06 53.32035 -113.57870 2386 ft 21 kts 34°
2026-04-28 01:06 53.32155 -113.57730 2383 ft 21 kts 34°
2026-04-28 01:06 53.32271 -113.57593 2383 ft 20 kts 34°
2026-04-28 01:06 53.32385 -113.57462 2384 ft 20 kts 36°
2026-04-28 01:07 53.32501 -113.57326 2383 ft 21 kts 35°
2026-04-28 01:07 53.32616 -113.57191 2383 ft 20 kts 35°
2026-04-28 01:07 53.32728 -113.57059 2385 ft 19 kts 35°
2026-04-28 01:07 53.32840 -113.56928 2386 ft 22 kts 34°
2026-04-28 01:08 53.32967 -113.56783 2386 ft 22 kts 34°
2026-04-28 01:08 53.33090 -113.56641 2383 ft 21 kts 36°
2026-04-28 01:08 53.33210 -113.56528 2383 ft 17 kts 350°
2026-04-28 01:08 53.33281 -113.56679 2382 ft 16 kts 302°
2026-04-28 01:09 53.33270 -113.56840 2381 ft 16 kts 218°
2026-04-28 01:09 53.33096 -113.57044 2380 ft 66 kts 214°
2026-04-28 01:09 53.32476 -113.57768 2381 ft 147 kts 215°
2026-04-28 01:09 53.31507 -113.58889 2773 ft 182 kts 209°
2026-04-28 01:10 53.30469 -113.60079 3988 ft 178 kts 212°
2026-04-28 01:10 53.29422 -113.61282 4967 ft 192 kts 213°
2026-04-28 01:10 53.28229 -113.62634 5409 ft 222 kts 212°
2026-04-28 01:10 53.26835 -113.64099 5928 ft 253 kts 213°
2026-04-28 01:11 53.25304 -113.65687 6892 ft 264 kts 214°
2026-04-28 01:11 53.23732 -113.67314 8024 ft 269 kts 216°
2026-04-28 01:11 53.22120 -113.68984 9076 ft 278 kts 214°
2026-04-28 01:11 53.20457 -113.70704 10162 ft 284 kts 214°
2026-04-28 01:12 53.18735 -113.72486 10851 ft 304 kts 214°
2026-04-28 01:12 53.16851 -113.74443 11290 ft 329 kts 214°
2026-04-28 01:12 53.14880 -113.76487 12203 ft 338 kts 214°
2026-04-28 01:12 53.12869 -113.78567 13247 ft 343 kts 214°
2026-04-28 01:13 53.10825 -113.80680 14245 ft 349 kts 214°
2026-04-28 01:13 53.06615 -113.85031 16134 ft 363 kts 214°
2026-04-28 01:13 53.04450 -113.87265 17092 ft 370 kts 214°
2026-04-28 01:14 53.02243 -113.89541 18052 ft 377 kts 214°
2026-04-28 01:14 52.99992 -113.91860 18900 ft 384 kts 214°
2026-04-28 01:14 52.97700 -113.94217 19703 ft 391 kts 214°
2026-04-28 01:14 52.95371 -113.96610 20511 ft 397 kts 214°
2026-04-28 01:15 52.93000 -113.99042 21299 ft 403 kts 214°
2026-04-28 01:15 52.90611 -114.01489 22275 ft 404 kts 214°
2026-04-28 01:15 52.88228 -114.03927 23356 ft 403 kts 214°
2026-04-28 01:15 52.85826 -114.06383 23915 ft 406 kts 214°
2026-04-28 01:16 52.83430 -114.08828 24068 ft 405 kts 214°
2026-04-28 01:16 52.80974 -114.11114 24054 ft 406 kts 206°
2026-04-28 01:16 52.78334 -114.12766 24066 ft 406 kts 200°
2026-04-28 01:16 52.75646 -114.14222 24085 ft 406 kts 199°
2026-04-28 01:17 52.72950 -114.15639 24082 ft 407 kts 199°
2026-04-28 01:17 52.70289 -114.17035 24077 ft 407 kts 199°
2026-04-28 01:17 52.67592 -114.18463 24061 ft 407 kts 199°
2026-04-28 01:17 52.64893 -114.19906 24070 ft 407 kts 199°
2026-04-28 01:18 52.62201 -114.21354 24064 ft 407 kts 199°
2026-04-28 01:18 52.59509 -114.22806 24055 ft 407 kts 199°
2026-04-28 01:18 52.56822 -114.24259 24059 ft 406 kts 199°
2026-04-28 01:18 52.54140 -114.25710 24049 ft 406 kts 199°
2026-04-28 01:19 52.51456 -114.27159 24054 ft 406 kts 199°
2026-04-28 01:19 52.48776 -114.28605 24057 ft 405 kts 199°
2026-04-28 01:19 52.46099 -114.30047 24062 ft 405 kts 199°
2026-04-28 01:19 52.43421 -114.31487 24067 ft 405 kts 199°
2026-04-28 01:20 52.40741 -114.32926 24054 ft 405 kts 199°
2026-04-28 01:20 52.38061 -114.34364 24045 ft 405 kts 199°
2026-04-28 01:20 52.35381 -114.35799 24037 ft 405 kts 199°
2026-04-28 01:20 52.32706 -114.37230 24041 ft 405 kts 199°
2026-04-28 01:21 52.30025 -114.38663 24052 ft 405 kts 199°
2026-04-28 01:21 52.27345 -114.40093 24058 ft 405 kts 199°
2026-04-28 01:21 52.24662 -114.41523 24018 ft 405 kts 199°
2026-04-28 01:21 52.21985 -114.42947 24032 ft 404 kts 199°
2026-04-28 01:22 52.19311 -114.44369 24035 ft 404 kts 199°
2026-04-28 01:22 52.16651 -114.45781 23982 ft 399 kts 199°
2026-04-28 01:22 52.14011 -114.47182 23612 ft 398 kts 199°
2026-04-28 01:22 52.11390 -114.48571 23143 ft 394 kts 199°
2026-04-28 01:23 52.08810 -114.49935 22713 ft 387 kts 199°
2026-04-28 01:23 52.06266 -114.51278 22239 ft 381 kts 199°
2026-04-28 01:23 52.03766 -114.52601 21825 ft 375 kts 200°
2026-04-28 01:23 52.01298 -114.53908 21374 ft 371 kts 200°
2026-04-28 01:24 51.98864 -114.55196 20940 ft 366 kts 200°
2026-04-28 01:24 51.96454 -114.56471 20505 ft 362 kts 200°
2026-04-28 01:24 51.94074 -114.57728 20073 ft 358 kts 200°
2026-04-28 01:24 51.91719 -114.58971 19644 ft 354 kts 200°
2026-04-28 01:25 51.89386 -114.60202 19226 ft 351 kts 200°
2026-04-28 01:25 51.87078 -114.61416 18809 ft 348 kts 200°
2026-04-28 01:25 51.84789 -114.62620 18390 ft 344 kts 201°
2026-04-28 01:25 51.82521 -114.63813 17908 ft 341 kts 201°
2026-04-28 01:26 51.80272 -114.64994 17453 ft 338 kts 200°
2026-04-28 01:26 51.78054 -114.66158 17080 ft 332 kts 200°
2026-04-28 01:26 51.75868 -114.67304 16662 ft 329 kts 200°
2026-04-28 01:26 51.73697 -114.68439 16247 ft 326 kts 200°
2026-04-28 01:27 51.71550 -114.69560 15834 ft 323 kts 199°
2026-04-28 01:27 51.69339 -114.70091 15411 ft 324 kts 176°
2026-04-28 01:27 51.67184 -114.69179 15067 ft 320 kts 153°
2026-04-28 01:27 51.65296 -114.67265 14694 ft 323 kts 144°
2026-04-28 01:28 51.63447 -114.65151 14315 ft 329 kts 143°
2026-04-28 01:28 51.61597 -114.63040 14187 ft 322 kts 143°
2026-04-28 01:28 51.59794 -114.61020 14020 ft 310 kts 144°
2026-04-28 01:28 51.58048 -114.59082 13870 ft 300 kts 144°
2026-04-28 01:29 51.56363 -114.57153 13513 ft 296 kts 142°
2026-04-28 01:29 51.54718 -114.55209 13193 ft 291 kts 142°
2026-04-28 01:29 51.53094 -114.53285 12859 ft 289 kts 143°
2026-04-28 01:29 51.52028 -114.52027 12634 ft 287 kts 143°
2026-04-28 01:30 51.50426 -114.50144 12303 ft 284 kts 143°
2026-04-28 01:30 51.48328 -114.47686 11881 ft 280 kts 143°
2026-04-28 01:30 51.46711 -114.45983 11546 ft 277 kts 152°
2026-04-28 01:30 51.45004 -114.44585 11252 ft 274 kts 154°
2026-04-28 01:31 51.43849 -114.43685 11034 ft 273 kts 155°
2026-04-28 01:31 51.42151 -114.42361 10723 ft 271 kts 155°
2026-04-28 01:31 51.40469 -114.41029 10419 ft 268 kts 154°
2026-04-28 01:31 51.38808 -114.39695 10117 ft 266 kts 154°
2026-04-28 01:32 51.37168 -114.38368 9806 ft 263 kts 154°
2026-04-28 01:32 51.35542 -114.37050 9479 ft 261 kts 154°
2026-04-28 01:32 51.33936 -114.35747 9263 ft 254 kts 154°
2026-04-28 01:32 51.32446 -114.34336 9094 ft 246 kts 137°
2026-04-28 01:33 51.31550 -114.32106 8991 ft 237 kts 108°
2026-04-28 01:33 51.31326 -114.29486 8852 ft 243 kts 89°
2026-04-28 01:33 51.31347 -114.26762 8724 ft 245 kts 89°
2026-04-28 01:33 51.31372 -114.24093 8452 ft 237 kts 89°
2026-04-28 01:34 51.31403 -114.21466 7968 ft 236 kts 89°
2026-04-28 01:34 51.31439 -114.18851 7453 ft 235 kts 89°
2026-04-28 01:34 51.31483 -114.16247 6936 ft 234 kts 89°
2026-04-28 01:34 51.31537 -114.13702 6611 ft 231 kts 88°
2026-04-28 01:35 51.31597 -114.11128 6569 ft 233 kts 88°
2026-04-28 01:35 51.31659 -114.08559 6554 ft 231 kts 89°
2026-04-28 01:35 51.31637 -114.06031 6529 ft 220 kts 103°
2026-04-28 01:35 51.30931 -114.04020 6535 ft 202 kts 140°
2026-04-28 01:36 51.29769 -114.02852 6552 ft 198 kts 152°
2026-04-28 01:36 51.28485 -114.02146 6527 ft 195 kts 178°
2026-04-28 01:36 51.27133 -114.02159 6427 ft 196 kts 180°
2026-04-28 01:36 51.25762 -114.02138 6170 ft 197 kts 180°
2026-04-28 01:37 51.24434 -114.02131 5887 ft 182 kts 180°
2026-04-28 01:37 51.23224 -114.02132 5656 ft 164 kts 179°
2026-04-28 01:37 51.22145 -114.02133 5421 ft 148 kts 179°
2026-04-28 01:37 51.21137 -114.02133 5230 ft 144 kts 179°
2026-04-28 01:38 51.20130 -114.02132 5042 ft 143 kts 178°
2026-04-28 01:38 51.19145 -114.02131 4826 ft 143 kts 178°
2026-04-28 01:38 51.18164 -114.02124 4659 ft 140 kts 178°
2026-04-28 01:38 51.17198 -114.02124 4448 ft 139 kts 179°
2026-04-28 01:39 51.16229 -114.02132 4227 ft 138 kts 179°
2026-04-28 01:39 51.15266 -114.02132 4017 ft 139 kts 178°
2026-04-28 01:39 51.14309 -114.02133 3836 ft 137 kts 178°
2026-04-28 01:39 51.13355 -114.02134 3662 ft 136 kts 178°
2026-04-28 01:40 51.12424 -114.02136 3560 ft 126 kts 179°
2026-04-28 01:40 51.11659 -114.02132 3556 ft 93 kts 180°
2026-04-28 01:40 51.11152 -114.02136 3560 ft 46 kts 180°
2026-04-28 01:40 51.10859 -114.02130 3560 ft 36 kts 174°
2026-04-28 01:41 51.10668 -114.02014 3558 ft 26 kts 150°
2026-04-28 01:41 51.10586 -114.01861 3558 ft 15 kts 79°
2026-04-28 01:41 51.10673 -114.01797 3558 ft 15 kts
2026-04-28 01:41 51.10772 -114.01797 3558 ft 14 kts 360°
2026-04-28 01:42 51.10868 -114.01798 3558 ft 14 kts 359°
2026-04-28 01:42 51.10960 -114.01798 3558 ft 13 kts
2026-04-28 01:42 51.11049 -114.01795 3558 ft 13 kts 360°
2026-04-28 01:42 51.11136 -114.01796 3558 ft 13 kts 360°
2026-04-28 01:43 51.11235 -114.01797 3558 ft 15 kts 360°
2026-04-28 01:43 51.11341 -114.01796 3558 ft 15 kts
2026-04-28 01:43 51.11453 -114.01797 3555 ft 17 kts 360°
2026-04-28 01:43 51.11577 -114.01797 3558 ft 19 kts 360°
2026-04-28 01:44 51.11711 -114.01797 3558 ft 20 kts 358°
2026-04-28 01:44 51.11853 -114.01797 3555 ft 21 kts
2026-04-28 01:44 51.12000 -114.01795 3557 ft 21 kts
2026-04-28 01:44 51.12150 -114.01795 3558 ft 22 kts 359°
2026-04-28 01:45 51.12302 -114.01796 3558 ft 22 kts
2026-04-28 01:45 51.12452 -114.01795 3557 ft 21 kts 359°
2026-04-28 01:45 51.12598 -114.01794 3558 ft 21 kts
2026-04-28 01:45 51.12740 -114.01794 3558 ft 20 kts 360°
2026-04-28 01:46 51.12885 -114.01794 3558 ft 21 kts 360°
2026-04-28 01:46 51.13036 -114.01794 3558 ft 19 kts
2026-04-28 01:46 51.13127 -114.01699 3558 ft 16 kts 52°
2026-04-28 01:46 51.13154 -114.01537 3558 ft 15 kts 91°
2026-04-28 01:47 51.13123 -114.01404 3558 ft 13 kts 121°
2026-04-28 01:47 51.13142 -114.01284 3558 ft 8 kts 66°
2026-04-28 01:47 51.13146 -114.01270 3555 ft 0 kts 68°